Location: Coopersdale
(40.3556°N, 78.9372°W)
Time: 01:53:14
(UTC+00:00)

Transit 4A - Pass Details

Date: 28 January 2021
Orbit: 867 x 978 km, 66.8° (Epoch: 07 March)

Event Time Altitude Azimuth Distance (km) Brightness Sun altitude
Rises 21:39:21 0° 165° (SSE) 3,652 11.2 7.7°
Reaches altitude 10° 21:42:34 10° 149° (SSE) 2,716 10.4 7.2°
Maximum altitude 21:47:02 20° 104° (ESE) 2,076 9.4 6.4°
Drops below altitude 10° 21:51:29 10° 60° (ENE) 2,726 9.7 5.7°
Sets 21:54:43 0° 44° (NE) 3,669 10.4 5.2°
